INMARSAT 3-F4

导读 | 星芒AI

INMARSAT 3-F4 是国际海事卫星组织(Inmarsat)第三代卫星系列中的一颗通信卫星,于2005年由阿丽亚娜5号火箭发射。它位于东经64.5度的轨道位置,主要为亚太地区提供移动卫星通信服务,支持海事、航空和陆地用户的语音与数据传输。该卫星采用L频段和C频段,具备高可靠性和广泛覆盖能力,是Inmarsat全球移动卫星通信网络的重要组成部分。

基本信息
目录编号:
24819
目录名称:
INMARSAT 3-F4
国际标识:
1997-027A
轨道中心:
EARTH
卫星名称:
INMARSAT 3-F4
卫星全名:
--
卫星状态:
在轨 (已飞行10375 天)
发射日期:
1997-06-03 UTC
国别 :
(IM)
星等 :
--
轨道信息
数据来源 国际轨道数据 AOE轨道数据
星历时间 2025-10-28T10:37:00+0800
1天前
查看轨道信息
2025-10-29T10:00:00+0800
4小时前
查看轨道信息
半长轴 42381.864km 42381.978km
偏心率 0.0007354 0.0007267
轨道倾角 11.100° 11.102°
近地点辐角 80.329° 80.918°
升交点赤经 39.584° 39.572°
平近点角 284.401° 272.833°
近地点 35972.561km 35973.044km
远地点 36034.897km 36034.642km
周期 1447.204分钟 1447.210分钟
每日圈数 0.995022 0.995018
详细信息
使用方式:
暂无
2D轨道图
3D轨道图
轨道高度分析图
轨道倾角分析图
轨道综合分析图
查看轨道综合分析图